Time,TemperatureF,DewpointF,PressureIn,WindDirection,WindDirectionDegrees,WindSpeedMPH,WindSpeedGustMPH,Humidity,HourlyPrecipIn,Conditions,Clouds,dailyrainin,SoftwareType,DateUTC
2013-02-19 00:10:00,55.3,48.0,30.22,East,95,0.0,-999.0,76,-99.99,,,0.00,weatherlink.com 1.10,2013-02-19 05:10:00,
2013-02-19 00:24:00,55.1,48.0,30.23,East,96,0.0,-999.0,76,-99.99,,,0.00,weatherlink.com 1.10,2013-02-19 05:24:00,
2013-02-19 00:39:00,54.7,48.0,30.22,East,96,0.0,-999.0,77,-99.99,,,0.00,weatherlink.com 1.10,2013-02-19 05:39:00,
2013-02-19 00:54:00,54.5,48.0,30.23,East,96,0.0,-999.0,78,-99.99,,,0.00,weatherlink.com 1.10,2013-02-19 05:54:00,
2013-02-19 01:09:00,54.0,47.0,30.21,East,96,0.0,-999.0,78,-99.99,,,0.00,weatherlink.com 1.10,2013-02-19 06:09:00,
2013-02-19 01:24:00,53.3,48.0,30.23,East,96,0.0,-999.0,81,-99.99,,,0.00,weatherlink.com 1.10,2013-02-19 06:24:00,
2013-02-19 01:39:00,52.6,48.0,30.23,East,96,0.0,-999.0,83,-99.99,,,0.00,weatherlink.com 1.10,2013-02-19 06:39:00,
2013-02-19 01:54:00,52.0,47.0,30.22,East,96,0.0,-999.0,84,-99.99,,,0.00,weatherlink.com 1.10,2013-02-19 06:54:00,
2013-02-19 02:09:00,51.5,47.0,30.21,East,96,0.0,-999.0,85,-99.99,,,0.00,weatherlink.com 1.10,2013-02-19 07:09:00,
2013-02-19 02:24:00,50.9,47.0,30.21,East,95,0.0,-999.0,85,-99.99,,,0.00,weatherlink.com 1.10,2013-02-19 07:24:00,
2013-02-19 02:39:00,50.7,47.0,30.20,East,96,0.0,-999.0,87,-99.99,,,0.00,weatherlink.com 1.10,2013-02-19 07:39:00,
2013-02-19 02:54:00,50.6,47.0,30.20,East,96,0.0,-999.0,88,-99.99,,,0.00,weatherlink.com 1.10,2013-02-19 07:54:00,
2013-02-19 03:09:00,50.4,47.0,30.20,East,96,0.0,-999.0,88,-99.99,,,0.00,weatherlink.com 1.10,2013-02-19 08:09:00,
2013-02-19 03:24:00,50.2,47.0,30.19,East,96,0.0,-999.0,88,-99.99,,,0.00,weatherlink.com 1.10,2013-02-19 08:24:00,
2013-02-19 03:39:00,50.0,47.0,30.18,East,96,0.0,-999.0,88,-99.99,,,0.00,weatherlink.com 1.10,2013-02-19 08:39:00,
2013-02-19 03:55:00,49.8,46.0,30.17,East,96,0.0,-999.0,88,-99.99,,,0.00,weatherlink.com 1.10,2013-02-19 08:55:00,
2013-02-19 04:09:00,49.6,47.0,30.18,East,96,0.0,-999.0,89,-99.99,,,0.00,weatherlink.com 1.10,2013-02-19 09:09:00,
2013-02-19 04:24:00,49.5,47.0,30.18,East,96,0.0,-999.0,90,-99.99,,,0.00,weatherlink.com 1.10,2013-02-19 09:24:00,
2013-02-19 04:39:00,49.9,47.0,30.18,East,96,0.0,-999.0,90,-99.99,,,0.00,weatherlink.com 1.10,2013-02-19 09:39:00,
2013-02-19 04:54:00,49.9,47.0,30.17,East,96,0.0,-999.0,89,-99.99,,,0.00,weatherlink.com 1.10,2013-02-19 09:54:00,
2013-02-19 05:09:00,49.9,47.0,30.18,East,96,0.0,-999.0,89,-99.99,,,0.00,weatherlink.com 1.10,2013-02-19 10:09:00,
2013-02-19 05:24:00,50.6,48.0,30.17,East,96,0.0,-999.0,89,-99.99,,,0.00,weatherlink.com 1.10,2013-02-19 10:24:00,
2013-02-19 05:39:00,50.8,47.0,30.18,East,96,0.0,-999.0,88,-99.99,,,0.00,weatherlink.com 1.10,2013-02-19 10:39:00,
2013-02-19 05:54:00,51.2,48.0,30.18,East,95,0.0,-999.0,88,-99.99,,,0.00,weatherlink.com 1.10,2013-02-19 10:54:00,
2013-02-19 06:10:00,51.8,48.0,30.17,East,96,0.0,-999.0,87,-99.99,,,0.00,weatherlink.com 1.10,2013-02-19 11:10:00,
2013-02-19 06:24:00,52.0,48.0,30.16,East,95,0.0,-999.0,86,-99.99,,,0.00,weatherlink.com 1.10,2013-02-19 11:24:00,
2013-02-19 06:39:00,51.9,48.0,30.16,East,96,0.0,-999.0,87,-99.99,,,0.00,weatherlink.com 1.10,2013-02-19 11:39:00,
2013-02-19 06:56:00,52.3,49.0,30.17,East,95,3.0,-999.0,87,-99.99,,,0.00,weatherlink.com 1.10,2013-02-19 11:56:00,
2013-02-19 07:09:00,53.0,49.0,30.17,East,96,0.0,-999.0,86,-99.99,,,0.00,weatherlink.com 1.10,2013-02-19 12:09:00,
2013-02-19 07:24:00,53.4,49.0,30.17,East,96,0.0,-999.0,86,-99.99,,,0.00,weatherlink.com 1.10,2013-02-19 12:24:00,
2013-02-19 07:39:00,54.5,50.0,30.17,East,96,0.0,-999.0,85,-99.99,,,0.00,weatherlink.com 1.10,2013-02-19 12:39:00,
2013-02-19 07:54:00,56.1,51.0,30.17,East,96,1.0,-999.0,82,-99.99,,,0.00,weatherlink.com 1.10,2013-02-19 12:54:00,
2013-02-19 08:09:00,57.5,51.0,30.18,East,96,2.0,-999.0,79,-99.99,,,0.00,weatherlink.com 1.10,2013-02-19 13:09:00,
2013-02-19 08:24:00,58.7,52.0,30.19,ESE,110,2.0,-999.0,78,-99.99,,,0.00,weatherlink.com 1.10,2013-02-19 13:24:00,
2013-02-19 08:39:00,60.2,53.0,30.19,ESE,120,0.0,-999.0,78,-99.99,,,0.00,weatherlink.com 1.10,2013-02-19 13:39:00,
2013-02-19 08:54:00,63.0,55.0,30.20,SW,221,5.0,-999.0,74,-99.99,,,0.00,weatherlink.com 1.10,2013-02-19 13:54:00,
2013-02-19 09:09:00,64.6,55.0,30.20,South,180,6.0,-999.0,72,-99.99,,,0.00,weatherlink.com 1.10,2013-02-19 14:09:00,
2013-02-19 09:24:00,65.7,56.0,30.19,SSE,166,5.0,-999.0,71,-99.99,,,0.00,weatherlink.com 1.10,2013-02-19 14:24:00,
2013-02-19 09:39:00,66.7,57.0,30.19,South,189,5.0,-999.0,70,-99.99,,,0.00,weatherlink.com 1.10,2013-02-19 14:39:00,
2013-02-19 09:54:00,67.5,57.0,30.19,WSW,245,6.0,-999.0,69,-99.99,,,0.00,weatherlink.com 1.10,2013-02-19 14:54:00,
2013-02-19 10:09:00,69.2,56.0,30.19,SSE,167,6.0,-999.0,64,-99.99,,,0.00,weatherlink.com 1.10,2013-02-19 15:09:00,
2013-02-19 10:24:00,70.4,55.0,30.19,SW,221,4.0,-999.0,59,-99.99,,,0.00,weatherlink.com 1.10,2013-02-19 15:24:00,
2013-02-19 10:39:00,71.5,55.0,30.19,WSW,240,5.0,-999.0,56,-99.99,,,0.00,weatherlink.com 1.10,2013-02-19 15:39:00,
2013-02-19 10:54:00,73.1,54.0,30.18,NW,305,13.0,-999.0,51,-99.99,,,0.00,weatherlink.com 1.10,2013-02-19 15:54:00,
2013-02-19 11:09:00,73.1,53.0,30.18,SSW,192,7.0,-999.0,50,-99.99,,,0.00,weatherlink.com 1.10,2013-02-19 16:09:00,
2013-02-19 11:39:00,73.9,54.0,30.18,SSW,202,11.0,-999.0,50,-99.99,,,0.00,weatherlink.com 1.10,2013-02-19 16:39:00,
2013-02-19 11:54:00,74.9,54.0,30.17,WSW,250,6.0,-999.0,48,-99.99,,,0.00,weatherlink.com 1.10,2013-02-19 16:54:00,
2013-02-19 12:09:00,74.8,54.0,30.16,SW,227,2.0,-999.0,48,-99.99,,,0.00,weatherlink.com 1.10,2013-02-19 17:09:00,
2013-02-19 12:24:00,76.0,54.0,30.15,West,271,2.0,-999.0,47,-99.99,,,0.00,weatherlink.com 1.10,2013-02-19 17:24:00,
2013-02-19 12:39:00,75.7,53.0,30.15,WSW,247,8.0,-999.0,46,-99.99,,,0.00,weatherlink.com 1.10,2013-02-19 17:39:00,
2013-02-19 12:54:00,76.2,54.0,30.14,SW,234,6.0,-999.0,46,-99.99,,,0.00,weatherlink.com 1.10,2013-02-19 17:54:00,
2013-02-19 13:10:00,76.9,54.0,30.12,WSW,255,1.0,-999.0,45,-99.99,,,0.00,weatherlink.com 1.10,2013-02-19 18:10:00,
2013-02-19 13:24:00,76.8,54.0,30.12,North,360,19.0,-999.0,46,-99.99,,,0.00,weatherlink.com 1.10,2013-02-19 18:24:00,
2013-02-19 13:39:00,77.7,55.0,30.10,West,271,5.0,-999.0,45,-99.99,,,0.00,weatherlink.com 1.10,2013-02-19 18:39:00,
2013-02-19 13:55:00,77.4,54.0,30.10,West,277,7.0,-999.0,45,-99.99,,,0.00,weatherlink.com 1.10,2013-02-19 18:55:00,
2013-02-19 14:09:00,77.9,55.0,30.09,WSW,252,2.0,-999.0,45,-99.99,,,0.00,weatherlink.com 1.10,2013-02-19 19:09:00,
2013-02-19 14:24:00,78.2,55.0,30.09,West,269,2.0,-999.0,45,-99.99,,,0.00,weatherlink.com 1.10,2013-02-19 19:24:00,
2013-02-19 14:39:00,78.7,55.0,30.08,SW,225,4.0,-999.0,44,-99.99,,,0.00,weatherlink.com 1.10,2013-02-19 19:39:00,
2013-02-19 14:54:00,78.3,55.0,30.08,West,273,6.0,-999.0,44,-99.99,,,0.00,weatherlink.com 1.10,2013-02-19 19:54:00,
2013-02-19 15:09:00,78.8,54.0,30.07,WSW,240,6.0,-999.0,42,-99.99,,,0.00,weatherlink.com 1.10,2013-02-19 20:09:00,
2013-02-19 15:24:00,78.3,55.0,30.07,SW,235,3.0,-999.0,44,-99.99,,,0.00,weatherlink.com 1.10,2013-02-19 20:24:00,
2013-02-19 15:39:00,79.0,55.0,30.07,West,259,8.0,-999.0,43,-99.99,,,0.00,weatherlink.com 1.10,2013-02-19 20:39:00,
2013-02-19 15:54:00,79.5,54.0,30.06,West,279,6.0,-999.0,41,-99.99,,,0.00,weatherlink.com 1.10,2013-02-19 20:54:00,
2013-02-19 16:09:00,78.5,54.0,30.06,WNW,290,5.0,-999.0,43,-99.99,,,0.00,weatherlink.com 1.10,2013-02-19 21:09:00,
2013-02-19 16:24:00,78.2,54.0,30.06,WSW,252,11.0,-999.0,43,-99.99,,,0.00,weatherlink.com 1.10,2013-02-19 21:24:00,
2013-02-19 16:39:00,78.1,54.0,30.06,WNW,288,3.0,-999.0,43,-99.99,,,0.00,weatherlink.com 1.10,2013-02-19 21:39:00,
2013-02-19 16:54:00,78.2,54.0,30.06,West,265,10.0,-999.0,43,-99.99,,,0.00,weatherlink.com 1.10,2013-02-19 21:54:00,
2013-02-19 17:09:00,77.5,54.0,30.06,WNW,294,6.0,-999.0,44,-99.99,,,0.00,weatherlink.com 1.10,2013-02-19 22:09:00,
2013-02-19 17:24:00,76.8,54.0,30.06,West,271,5.0,-999.0,45,-99.99,,,0.00,weatherlink.com 1.10,2013-02-19 22:24:00,
2013-02-19 17:39:00,76.2,54.0,30.07,WSW,251,1.0,-999.0,47,-99.99,,,0.00,weatherlink.com 1.10,2013-02-19 22:39:00,
2013-02-19 17:54:00,75.7,55.0,30.07,West,264,4.0,-999.0,49,-99.99,,,0.00,weatherlink.com 1.10,2013-02-19 22:54:00,
2013-02-19 18:09:00,75.1,55.0,30.08,West,264,4.0,-999.0,50,-99.99,,,0.00,weatherlink.com 1.10,2013-02-19 23:09:00,
2013-02-19 18:24:00,74.4,56.0,30.08,West,273,1.0,-999.0,52,-99.99,,,0.00,weatherlink.com 1.10,2013-02-19 23:24:00,
2013-02-19 18:39:00,73.9,56.0,30.08,WSW,238,1.0,-999.0,53,-99.99,,,0.00,weatherlink.com 1.10,2013-02-19 23:39:00,
2013-02-19 18:54:00,73.3,56.0,30.09,SW,228,0.0,-999.0,55,-99.99,,,0.00,weatherlink.com 1.10,2013-02-19 23:54:00,
2013-02-19 19:09:00,72.8,56.0,30.09,SW,236,3.0,-999.0,56,-99.99,,,0.00,weatherlink.com 1.10,2013-02-20 00:09:00,
2013-02-19 19:24:00,72.4,57.0,30.08,SW,229,1.0,-999.0,58,-99.99,,,0.00,weatherlink.com 1.10,2013-02-20 00:24:00,
2013-02-19 19:39:00,72.0,57.0,30.09,SW,234,6.0,-999.0,59,-99.99,,,0.00,weatherlink.com 1.10,2013-02-20 00:39:00,
2013-02-19 19:54:00,71.5,57.0,30.09,WSW,254,0.0,-999.0,60,-99.99,,,0.00,weatherlink.com 1.10,2013-02-20 00:54:00,
2013-02-19 20:09:00,71.0,57.0,30.10,WSW,257,1.0,-999.0,61,-99.99,,,0.00,weatherlink.com 1.10,2013-02-20 01:09:00,
2013-02-19 20:24:00,70.6,57.0,30.10,West,261,4.0,-999.0,63,-99.99,,,0.00,weatherlink.com 1.10,2013-02-20 01:24:00,
2013-02-19 20:39:00,70.2,57.0,30.10,WSW,250,1.0,-999.0,64,-99.99,,,0.00,weatherlink.com 1.10,2013-02-20 01:39:00,
2013-02-19 20:54:00,69.8,57.0,30.11,West,276,2.0,-999.0,65,-99.99,,,0.00,weatherlink.com 1.10,2013-02-20 01:54:00,
2013-02-19 21:09:00,69.4,57.0,30.10,WSW,257,5.0,-999.0,66,-99.99,,,0.00,weatherlink.com 1.10,2013-02-20 02:09:00,
2013-02-19 21:24:00,69.1,58.0,30.10,WSW,256,0.0,-999.0,67,-99.99,,,0.00,weatherlink.com 1.10,2013-02-20 02:24:00,
2013-02-19 21:39:00,68.9,58.0,30.10,West,260,4.0,-999.0,68,-99.99,,,0.00,weatherlink.com 1.10,2013-02-20 02:39:00,
2013-02-19 21:54:00,68.6,58.0,30.10,WSW,244,1.0,-999.0,68,-99.99,,,0.00,weatherlink.com 1.10,2013-02-20 02:54:00,
2013-02-19 22:09:00,68.2,58.0,30.10,WSW,250,0.0,-999.0,70,-99.99,,,0.00,weatherlink.com 1.10,2013-02-20 03:09:00,
2013-02-19 22:24:00,67.9,58.0,30.10,WSW,250,0.0,-999.0,70,-99.99,,,0.00,weatherlink.com 1.10,2013-02-20 03:24:00,
2013-02-19 22:39:00,67.7,58.0,30.10,WSW,251,0.0,-999.0,71,-99.99,,,0.00,weatherlink.com 1.10,2013-02-20 03:39:00,
2013-02-19 22:54:00,67.4,58.0,30.09,WSW,251,0.0,-999.0,72,-99.99,,,0.00,weatherlink.com 1.10,2013-02-20 03:54:00,
2013-02-19 23:09:00,67.0,58.0,30.09,WSW,251,2.0,-999.0,73,-99.99,,,0.00,weatherlink.com 1.10,2013-02-20 04:09:00,
2013-02-19 23:24:00,67.0,58.0,30.09,WSW,251,0.0,-999.0,74,-99.99,,,0.00,weatherlink.com 1.10,2013-02-20 04:24:00,
2013-02-19 23:39:00,66.8,59.0,30.09,WSW,251,2.0,-999.0,75,-99.99,,,0.00,weatherlink.com 1.10,2013-02-20 04:39:00,
2013-02-19 23:54:00,66.4,58.0,30.08,WSW,251,0.0,-999.0,75,-99.99,,,0.00,weatherlink.com 1.10,2013-02-20 04:54:00,